Regional Weather Roundup
Issued by NWS Charleston, SC

Current Version | Previous Version | Text Only | Print | Product List | Glossary Off
Versions: 1 2 3 4 5 6 7 8 9 10 11 12 13 14 15 16 17 18 19 20 21 22 23 24 25 26 27 28 29 30 31 32 33 34 35 36 37 38 39 40 41 42 43 44 45 46 47 48 49 50

000
ASUS42 KCHS 300010
RWRCHS

REGIONAL WEATHER ROUNDUP
NATIONAL WEATHER SERVICE CHARLESTON SC
800 PM EDT TUE JUL 29 2014

NOTE: "FAIR" INDICATES FEW OR NO CLOUDS BELOW 12,000 FEET WITH NO
SIGNIFICANT WEATHER AND/OR OBSTRUCTIONS TO VISIBILITY.

NOT ALL STATIONS ARE QUALITY CONTROLLED BY THE NATIONAL
WEATHER SERVICE. USE DATA WITH CAUTION...ESPECIALLY
DEWPOINT OBSERVATIONS.

SCZ027-030-031-034>040-042>050-300100-
...SOUTH CAROLINA...

CITY           SKY/WX    TMP DP  RH WIND       PRES   REMARKS
N CHARLESTON   PTCLDY    85  63  47 N7        29.91R
6HR MIN TEMP:  85; 6HR MAX TEMP:  92;

WATERFRONT PRK   N/A     82 N/A N/A SE9         N/A
FORT JOHNSON   NOT AVBL
MOUNT PLEASANT FAIR      79  73  83 CALM      29.91R
JOHNS ISLAND   CLEAR     81  72  74 CALM      29.91S
PINOPOLIS        N/A     90  63  40 N7        29.84R HX  90
MONCKS CORNER    N/A     84  68  58 CALM      29.91R HAZE
SUMMERVILLE    FAIR      79  72  78 CALM      29.92R
BEAUFORT MCAS  PTCLDY    84  67  56 NE3       29.91R
6HR MIN TEMP:  84; 6HR MAX TEMP:  90;

BEAUFORT ARPT  FAIR      82  73  74 CALM      29.91R
HILTON HEAD IS PTCLDY    81  73  78 CALM      29.92R
GEORGETOWN     NOT AVBL
WALTERBORO       N/A     82  63  51 CALM      29.93R
ORANGEBURG     PTCLDY    81  63  54 E3        29.93R
6HR MIN TEMP:  81; 6HR MAX TEMP:  89;

BARNWELL       FAIR      84  63  48 CALM      29.93R
AIKEN          FAIR      82  61  47 NW3       29.97R
MANNING        FAIR      81  73  78 CALM      29.92R
KINGSTREE      NOT AVBL
COLUMBIA       PTCLDY    87  54  32 NW5       29.92R
6HR MIN TEMP:  86; 6HR MAX TEMP:  91;

SUMTER         CLEAR     83  60  45 VRB6      29.91R
6HR MIN TEMP:  83; 6HR MAX TEMP:  88;

FLORENCE       PTCLDY    80  62  54 N6        29.93R
6HR MIN TEMP:  80; 6HR MAX TEMP:  88;

MYRTLE BEACH   NOT AVBL
N MYRTLE BEACH MOCLDY    82  68  62 CALM      29.92R
6HR MIN TEMP:  82; 6HR MAX TEMP:  88;


$$

GAZ063-065-086>088-099>101-113>116-118-119-134-136>141-150-300100-
...GEORGIA...

CITY           SKY/WX    TMP DP  RH WIND       PRES   REMARKS
SAVANNAH ARPT  PTCLDY    85  61  44 N6        29.91R
6HR MIN TEMP:  85; 6HR MAX TEMP:  93;

HUNTER AAF     PTCLDY    83  73  70 SE8       29.90R
6HR MIN TEMP:  83; 6HR MAX TEMP:  92;

FORT STEWART   CLEAR     85  65  52 CALM      29.90R
6HR MIN TEMP:  85; 6HR MAX TEMP:  92;

STATESBORO     NOT AVBL
SYLVANIA       CLEAR     82  72  71 CALM      29.93R
CLAXTON        FAIR      84  70  61 CALM      29.92R
THOMSON        CLEAR     83  67  56 W3        29.98R
AUGUSTA-BUSH   CLEAR     84  59  42 W8        29.92R
6HR MIN TEMP:  83; 6HR MAX TEMP:  89;

AUGUSTA-DANIEL CLOUDY    85  59  41 W5        29.94R
SWAINSBORO     FAIR      86  63  45 NW6       29.95R
VIDALIA          N/A     84  61  45 W7        29.94R
ALMA           CLEAR     86  57  37 NW9       29.92R
6HR MIN TEMP:  86; 6HR MAX TEMP:  93;

WAYCROSS       PTCLDY    90  63  40 NW7       29.92R HX  90
JESUP          FAIR      90  61  37 NE5       29.91R
BRUNSWICK      PTCLDY    86  70  58 E7        29.91R HX  90
SAINT SIMONS   PTCLDY    85  70  60 E8        29.90R
6HR MIN TEMP:  85; 6HR MAX TEMP:  92;


$$

SCZ027-028-034-036>038-045-046-048>050-GAZ119-141-300100-
...LAKE AND SUPPLEMENTAL COASTAL OBSERVATIONS...

STATION/POSITION TIME  TEMP    WIND        PRES    WAVE   SWELL
                       AIR SEA DIR/SP/G            HT/PER HT/PER/DIR
                 (UTC) (F)     (DEG/KT/KT) (MB)    (FT/S) (FT/S/D)
UPR LAKE MARION  NOT AVBL
WINYAH BAY       2300   83     130/  5     1012.0S
LAKE MURRAY      2300   84      40/  2/  4 1012.5R
ACE BASIN NERRS  2300   86        CALM     1013.0S
FORT PULASKI     0000   82     120/  3/  4 1013.0S
SAPELO ISLAND    2300   87     110/  5     1013.0S

$$

ANZ835-935-AMZ111-154-330-350-352-354-374-450-454-472-300100-
...C-MAN AND BUOY OBSERVATIONS...

STATION/POSITION TIME  TEMP    WIND        PRES    WAVE   SWELL
                       AIR SEA DIR/SP/G            HT/PER HT/PER/DIR
                 (UTC) (F)     (DEG/KT/KT) (MB)    (FT/S) (FT/S/D)
FOLLY BEACH CMAN 2300   82     160/  7/  8 1012.8S
BUOY 41004       0000   82 84   50/  8/ 10 1012.1R   2/ 5   2/ 5
BUOY 41008       0000   84 86   90/  6/  6 1012.7R   2/ 4   2/ 50/ 4
5E ST. MARYS GA  0000      86                N/A     1/ 8
FRYING PAN BUOY  NOT AVBL
BUOY 41025       0000          VRB 16/ 19  1013.0R   4/ 8   2/150/ 8
CAPE LOOKOUT NC  2300   78      50/ 12/ 14 1012.7R
BUOY 41002       NOT AVBL
BUOY 41010       0000   84 84  230/ 14/ 17 1013.5R   4/ 5   2/100/ 9
BUOY 41012       NOT AVBL
ST AUGUSTINE FL  0000   84     160/ 11/ 11 1013.1R
CAPERS NEARSHORE 2300   84     140/  4/  6   N/A
FRIPP NEARSHORE  NOT AVBL


$$



USA.gov is the U.S. government's official web portal to all federal, state and local government web resources and services.